Orr, MN

2:33 PM CST on December 17, 2017 (GMT -0600)
Orr Regional

Weather History for KORB - February, 2013

Change the Weather History Date:

Monday, February 18, 2013

  Actual Average Record
Temperature  
Mean Temperature 16 °F -  
Max Temperature 30 °F 24 °F 51 °F (2017)
Min Temperature 0 °F 3 °F -25 °F (2006)
Degree Days  
Heating Degree Days 50    
Moisture  
Dew Point 12 °F    
Average Humidity 78    
Maximum Humidity 93    
Minimum Humidity 69    
Precipitation  
Precipitation 0.02 in - - ()
Sea Level Pressure  
Sea Level Pressure 29.57 in    
Wind  
Wind Speed 7 mph (WNW)    
Max Wind Speed 14 mph    
Max Gust Speed 23 mph    
Visibility 8 miles    
Events Snow    
Averages and records for this station are not official NWS values.
T = Trace of Precipitation, MM = Missing Value Source: NWS Daily Summary

Daily Weather History Graph

Daily Weather History Graph

Search for Another Location

Airport or City:

Trip Planner

Search our weather history database for the weather conditions in past years. The results will help you decide how hot, cold, wet, or windy it might be!

Date:

Astronomy

Feb. 18, 2013 Rise Set
Actual Time 7:12 AM CST 5:39 PM CST
Civil Twilight 6:40 AM CST 6:10 PM CST
Nautical Twilight 6:04 AM CST 6:47 PM CST
Astronomical Twilight 5:28 AM CST 7:23 PM CST
Moon 11:12 AM CST (2/18) 2:05 AM CST (2/18)
Length of Visible Light 11h 30m
Length of Day
10h 27m
First Quarter, 58% of the Moon is Illuminated
Feb 18
First Quarter
Feb 25
Full
Mar 4
Last Quarter
Mar 11
New
Mar 19
First Quarter

Hourly Weather History & Observations

Time (CST) Temp. Windchill Dew Point Humidity Pressure Visibility Wind Dir Wind Speed Gust Speed Precip Events Conditions
12:13 AM 24.8 °F 14.6 °F 15.8 °F 69% 29.55 in 10.0 mi South 10.4 mph 16.1 mph N/A   Overcast
12:33 AM 24.8 °F 15.3 °F 15.8 °F 69% 29.55 in 10.0 mi SSE 9.2 mph - N/A   Overcast
12:53 AM 24.8 °F 16.9 °F 15.8 °F 69% 29.55 in 10.0 mi SSE 6.9 mph - N/A   Mostly Cloudy
1:13 AM 24.8 °F 16.9 °F 15.8 °F 69% 29.55 in 10.0 mi SSE 6.9 mph - N/A   Overcast
1:33 AM 24.8 °F 16.1 °F 15.8 °F 69% 29.54 in 10.0 mi SSE 8.1 mph - N/A   Overcast
1:53 AM 24.8 °F 16.1 °F 15.8 °F 69% 29.54 in 10.0 mi SSE 8.1 mph - N/A   Mostly Cloudy
2:13 AM 24.8 °F 16.1 °F 15.8 °F 69% 29.54 in 10.0 mi SSE 8.1 mph - N/A   Overcast
2:33 AM 23.0 °F 17.0 °F 15.8 °F 74% 29.53 in 10.0 mi SSE 4.6 mph - N/A   Overcast
2:53 AM 23.0 °F 14.7 °F 15.8 °F 74% 29.52 in 10.0 mi SE 6.9 mph - N/A   Overcast
3:13 AM 23.0 °F 14.7 °F 15.8 °F 74% 29.51 in 10.0 mi SSE 6.9 mph - N/A   Overcast
3:33 AM 23.0 °F 15.8 °F 15.8 °F 74% 29.51 in 10.0 mi SE 5.8 mph - N/A   Overcast
3:53 AM 23.0 °F 13.1 °F 15.8 °F 74% 29.50 in 10.0 mi SE 9.2 mph - N/A   Overcast
4:13 AM 23.0 °F 14.7 °F 15.8 °F 74% 29.49 in 10.0 mi SE 6.9 mph - N/A   Overcast
4:33 AM 23.0 °F 14.7 °F 15.8 °F 74% 29.48 in 10.0 mi SE 6.9 mph - N/A   Overcast
4:53 AM 23.0 °F 13.1 °F 15.8 °F 74% 29.48 in 10.0 mi SSE 9.2 mph - N/A   Overcast
5:13 AM 23.0 °F 13.9 °F 15.8 °F 74% 29.48 in 10.0 mi SSE 8.1 mph - N/A   Overcast
5:33 AM 23.0 °F 14.7 °F 15.8 °F 74% 29.48 in 10.0 mi SSE 6.9 mph - N/A   Overcast
5:53 AM 23.0 °F 15.8 °F 15.8 °F 74% 29.48 in 10.0 mi SSE 5.8 mph - N/A   Overcast
6:13 AM 21.2 °F 14.9 °F 15.8 °F 80% 29.47 in 7.0 mi SSE 4.6 mph - N/A Snow Light Snow
6:33 AM 21.2 °F 14.9 °F 15.8 °F 80% 29.47 in 10.0 mi SSE 4.6 mph - N/A   Overcast
6:53 AM 21.2 °F 13.6 °F 15.8 °F 80% 29.47 in 10.0 mi SSE 5.8 mph - N/A   Overcast
7:13 AM 21.2 °F 14.9 °F 15.8 °F 80% 29.47 in 4.0 mi SSE 4.6 mph - N/A Snow Light Snow
7:33 AM 21.2 °F 16.4 °F 17.6 °F 86% 29.47 in 1.0 mi SE 3.5 mph - N/A   Overcast
7:53 AM 21.2 °F 16.4 °F 17.6 °F 86% 29.47 in 1.0 mi SE 3.5 mph - N/A Snow Light Snow
8:33 AM 21.2 °F - 19.4 °F 93% 29.46 in 0.5 mi Calm Calm - 0.01 in Snow Heavy Snow
8:53 AM 21.2 °F - 19.4 °F 93% 29.46 in 3.0 mi Calm Calm - 0.01 in Snow Light Snow
9:13 AM 21.2 °F 16.4 °F 17.6 °F 86% 29.47 in 4.0 mi SE 3.5 mph - N/A Snow Light Snow
9:34 AM 21.2 °F - 19.4 °F 93% 29.47 in 5.0 mi Calm Calm - 0.01 in Snow Light Snow
9:53 AM 21.2 °F - 19.4 °F 93% 29.47 in 7.0 mi Calm Calm - 0.01 in   Clear
10:13 AM 23.0 °F - 19.4 °F 86% 29.47 in 5.0 mi Calm Calm - N/A Snow Light Snow
10:33 AM 23.0 °F - 19.4 °F 86% 29.47 in 4.0 mi Calm Calm - N/A Snow Light Snow
10:53 AM 23.0 °F - 17.6 °F 80% 29.47 in 7.0 mi Calm Calm - N/A Snow Light Snow
11:13 AM 23.0 °F - 17.6 °F 80% 29.48 in 10.0 mi Calm Calm - N/A   Scattered Clouds
11:33 AM 23.0 °F - 17.6 °F 80% 29.48 in 7.0 mi Calm Calm - N/A Snow Light Snow
11:53 AM 23.0 °F 18.4 °F 17.6 °F 80% 29.49 in 7.0 mi NW 3.5 mph - N/A Snow Light Snow
12:13 PM 23.0 °F 18.4 °F 19.4 °F 86% 29.49 in 10.0 mi NW 3.5 mph - N/A   Scattered Clouds
12:33 PM 23.0 °F 17.0 °F 19.4 °F 86% 29.49 in 7.0 mi NW 4.6 mph - N/A   Scattered Clouds
12:53 PM 23.0 °F 15.8 °F 19.4 °F 86% 29.49 in 7.0 mi NW 5.8 mph - N/A   Scattered Clouds
1:13 PM 23.0 °F 17.0 °F 19.4 °F 86% 29.49 in 7.0 mi NW 4.6 mph - N/A   Mostly Cloudy
1:33 PM 24.8 °F 17.9 °F 19.4 °F 80% 29.49 in 10.0 mi NW 5.8 mph - N/A   Overcast
1:53 PM 24.8 °F 16.1 °F 19.4 °F 80% 29.50 in 10.0 mi NNW 8.1 mph - N/A   Overcast
2:13 PM 24.8 °F 19.1 °F 17.6 °F 74% 29.50 in 10.0 mi NW 4.6 mph - N/A Snow Light Snow
2:33 PM 24.8 °F 17.9 °F 17.6 °F 74% 29.51 in 10.0 mi NW 5.8 mph - N/A   Overcast
2:53 PM 24.8 °F 14.0 °F 17.6 °F 74% 29.52 in 10.0 mi NW 11.5 mph 18.4 mph N/A Snow Light Snow
3:13 PM 19.4 °F 6.6 °F 14.0 °F 80% 29.54 in 7.0 mi NW 12.7 mph 20.7 mph N/A Snow Light Snow
3:34 PM 17.6 °F 5.7 °F 12.2 °F 79% 29.55 in 5.0 mi NW 10.4 mph 20.7 mph N/A Snow Light Snow
3:53 PM 17.6 °F 5.0 °F 10.4 °F 73% 29.57 in 7.0 mi NNW 11.5 mph 19.6 mph N/A Snow Light Snow
4:13 PM 15.8 °F 4.2 °F 10.4 °F 79% 29.58 in 7.0 mi NW 9.2 mph 16.1 mph N/A Snow Light Snow
4:33 PM 15.8 °F 1.4 °F 10.4 °F 79% 29.60 in 3.0 mi NW 13.8 mph 23.0 mph N/A Snow Light Snow
4:53 PM 15.8 °F 2.1 °F 8.6 °F 73% 29.61 in 3.0 mi NW 12.7 mph 21.9 mph N/A Snow Light Snow
5:14 PM 14.0 °F -0.2 °F 8.6 °F 79% 29.62 in 3.0 mi NW 12.7 mph 18.4 mph N/A Snow Light Snow
5:33 PM 12.2 °F -2.5 °F 8.6 °F 85% 29.64 in 4.0 mi NW 12.7 mph 19.6 mph N/A Snow Light Snow
5:53 PM 10.4 °F -5.4 °F 5.0 °F 79% 29.66 in 7.0 mi NW 13.8 mph 23.0 mph N/A   Overcast
6:13 PM 10.4 °F -3.3 °F 3.2 °F 73% 29.68 in 10.0 mi NW 10.4 mph 23.0 mph N/A   Overcast
6:33 PM 8.6 °F -7.0 °F 3.2 °F 79% 29.69 in 10.0 mi NW 12.7 mph 19.6 mph N/A   Overcast
6:53 PM 8.6 °F -6.3 °F 1.4 °F 73% 29.70 in 10.0 mi NW 11.5 mph 19.6 mph N/A   Overcast
7:13 PM 6.8 °F -9.3 °F 1.4 °F 79% 29.70 in 10.0 mi NW 12.7 mph 21.9 mph N/A   Overcast
7:33 PM 6.8 °F -7.8 °F -0.4 °F 72% 29.71 in 10.0 mi NW 10.4 mph 19.6 mph N/A Snow Light Snow
7:53 PM 6.8 °F -6.9 °F -0.4 °F 72% 29.72 in 10.0 mi NNW 9.2 mph 18.4 mph N/A Snow Light Snow
8:13 PM 5.0 °F -9.1 °F -2.2 °F 72% 29.72 in 7.0 mi NW 9.2 mph 19.6 mph N/A Snow Light Snow
8:33 PM 5.0 °F -6.9 °F -2.2 °F 72% 29.72 in 7.0 mi NW 6.9 mph - N/A Snow Light Snow
8:53 PM 3.2 °F -10.3 °F -2.2 °F 78% 29.73 in 3.0 mi NNW 8.1 mph 19.6 mph N/A Snow Light Snow
9:13 PM 3.2 °F -11.3 °F -2.2 °F 78% 29.74 in 7.0 mi NW 9.2 mph 16.1 mph N/A Snow Light Snow
9:33 PM 3.2 °F -13.1 °F -2.2 °F 78% 29.75 in 7.0 mi NW 11.5 mph 16.1 mph N/A Snow Light Snow
9:53 PM 3.2 °F -13.1 °F -4.0 °F 72% 29.76 in 7.0 mi NW 11.5 mph 19.6 mph N/A Snow Light Snow
10:13 PM 3.2 °F -12.2 °F -4.0 °F 72% 29.76 in 7.0 mi NW 10.4 mph - N/A Snow Light Snow
10:33 PM 1.4 °F -8.3 °F -4.0 °F 78% 29.77 in 7.0 mi NW 4.6 mph 20.7 mph N/A   Overcast
10:53 PM 1.4 °F -16.1 °F -5.8 °F 72% 29.77 in - NW 12.7 mph 18.4 mph N/A Snow Light Snow
11:13 PM 30.2 °F 22.6 °F 28.4 °F 93% 29.78 in 7.0 mi NW 8.1 mph - N/A   Overcast
11:33 PM 1.4 °F -13.5 °F -5.8 °F 72% 29.79 in 10.0 mi NW 9.2 mph - N/A   Overcast
11:53 PM -0.4 °F -16.7 °F -7.6 °F 72% 29.79 in 7.0 mi NW 10.4 mph 19.6 mph N/A   Overcast